Change the Weather History Date:

Friday, January 17, 2014

  Actual Average Record
Temperature  
Mean Temperature 37 °F -  
Max Temperature 46 °F 19 °F 46 °F (2014)
Min Temperature 28 °F 8 °F -20 °F (2004)
Degree Days  
Heating Degree Days 28    
Moisture  
Dew Point 32 °F    
Average Humidity 79    
Maximum Humidity 100    
Minimum Humidity 53    
Precipitation  
Precipitation 0.00 in - - ()
Sea Level Pressure  
Sea Level Pressure 29.28 in    
Wind  
Wind Speed 6 mph (ENE)    
Max Wind Speed 26 mph    
Max Gust Speed 48 mph    
Visibility 9 miles    
Events      
Averages and records for this station are not official NWS values.
T = Trace of Precipitation, MM = Missing Value Source: NWS Daily Summary

Daily Weather History Graph

Daily Weather History Graph

Search for Another Location

Airport or City:

Trip Planner

Search our weather history database for the weather conditions in past years. The results will help you decide how hot, cold, wet, or windy it might be!

Date:

Astronomy

Jan. 17, 2014 Rise Set
Actual Time 9:53 AM AKST 4:24 PM AKST
Civil Twilight 8:57 AM AKST 5:19 PM AKST
Nautical Twilight 8:00 AM AKST 6:16 PM AKST
Astronomical Twilight 7:08 AM AKST 7:08 PM AKST
Moon 7:10 PM AKST (1/17) 9:40 AM AKST (1/17)
Length of Visible Light 8h 22m
Length of Day
6h 30m
Full, 98% of the Moon is Illuminated
Jan 17
Full
Jan 23
Last Quarter
Jan 30
New
Feb 6
First Quarter
Feb 14
Full

Hourly Weather History & Observations

Time (AKST) Temp. Windchill Dew Point Humidity Pressure Visibility Wind Dir Wind Speed Gust Speed Precip Events Conditions
12:16 AM 30.2 °F - 28.4 °F 93% 29.64 in 10.0 mi Calm Calm - N/A   Overcast
12:36 AM 30.2 °F 26.7 °F 30.2 °F 100% 29.62 in 10.0 mi SSW 3.5 mph - N/A   Overcast
12:56 AM 30.2 °F - 30.2 °F 100% 29.60 in 3.0 mi Calm Calm - N/A   Overcast
1:16 AM 30.2 °F 26.7 °F 30.2 °F 100% 29.58 in 0.5 mi South 3.5 mph - N/A   Overcast
1:36 AM 30.2 °F - 28.4 °F 93% 29.56 in 0.5 mi Calm Calm - N/A   Overcast
1:56 AM 30.2 °F 25.4 °F 30.2 °F 100% 29.54 in 0.8 mi SSE 4.6 mph - N/A   Overcast
2:16 AM 28.4 °F 23.3 °F 28.4 °F 100% 29.54 in 4.0 mi SW 4.6 mph - N/A   Mostly Cloudy
2:36 AM 30.2 °F 25.4 °F 28.4 °F 93% 29.54 in 10.0 mi SW 4.6 mph - N/A   Mostly Cloudy
2:56 AM 30.2 °F 23.4 °F 30.2 °F 100% 29.53 in 10.0 mi SSW 6.9 mph - N/A   Scattered Clouds
3:16 AM 30.2 °F 24.3 °F 30.2 °F 100% 29.52 in 10.0 mi SSW 5.8 mph - N/A   Scattered Clouds
3:36 AM 30.2 °F 24.3 °F 30.2 °F 100% 29.50 in 10.0 mi South 5.8 mph - N/A   Mostly Cloudy
3:56 AM 30.2 °F 24.3 °F 30.2 °F 100% 29.49 in 10.0 mi SSW 5.8 mph - N/A   Scattered Clouds
4:16 AM 30.2 °F 23.4 °F 28.4 °F 93% 29.48 in 10.0 mi South 6.9 mph - N/A   Partly Cloudy
4:36 AM 30.2 °F 24.3 °F 28.4 °F 93% 29.47 in 10.0 mi SSW 5.8 mph - N/A   Clear
4:56 AM 30.2 °F 23.4 °F 28.4 °F 93% 29.45 in 10.0 mi SSW 6.9 mph - N/A   Clear
5:16 AM 30.2 °F 23.4 °F 28.4 °F 93% 29.44 in 10.0 mi SSW 6.9 mph - N/A   Clear
5:36 AM 30.2 °F - 30.2 °F 100% 29.42 in 10.0 mi Calm Calm - N/A   Mostly Cloudy
5:56 AM 30.2 °F 26.7 °F 28.4 °F 93% 29.40 in 10.0 mi SSE 3.5 mph - N/A   Overcast
6:16 AM 30.2 °F - 28.4 °F 93% 29.39 in 10.0 mi Calm Calm - N/A   Overcast
6:36 AM 30.2 °F 26.7 °F 28.4 °F 93% 29.38 in 10.0 mi West 3.5 mph - N/A   Overcast
6:56 AM 30.2 °F - 30.2 °F 100% 29.38 in 10.0 mi Calm Calm - N/A   Overcast
7:16 AM 30.2 °F 26.7 °F 30.2 °F 100% 29.37 in 10.0 mi SE 3.5 mph - N/A   Overcast
7:36 AM 30.2 °F - 30.2 °F 100% 29.34 in 10.0 mi Calm Calm - N/A   Overcast
7:56 AM 30.2 °F - 30.2 °F 100% 29.32 in 10.0 mi Calm Calm - N/A   Overcast
8:16 AM 32.0 °F - 32.0 °F 100% 29.30 in 10.0 mi Calm Calm - N/A   Overcast
8:36 AM 30.2 °F 26.7 °F 30.2 °F 100% 29.27 in 10.0 mi WNW 3.5 mph - N/A   Overcast
8:56 AM 33.8 °F 26.4 °F 33.8 °F 100% 29.26 in 10.0 mi ENE 9.2 mph - N/A   Overcast
9:16 AM 37.4 °F 28.2 °F 35.6 °F 93% 29.24 in 10.0 mi ENE 16.1 mph 21.9 mph N/A   Overcast
9:36 AM 41.0 °F 31.9 °F 37.4 °F 87% 29.24 in 10.0 mi NE 19.6 mph 26.5 mph N/A   Overcast
9:56 AM 41.0 °F 32.2 °F 37.4 °F 87% 29.21 in 10.0 mi NE 18.4 mph 25.3 mph N/A   Overcast
10:16 AM 39.2 °F 35.9 °F 37.4 °F 93% 29.22 in 10.0 mi NW 4.6 mph - N/A   Overcast
10:36 AM 42.8 °F 41.1 °F 37.4 °F 81% 29.24 in 10.0 mi NNE 3.5 mph - N/A   Overcast
10:56 AM 41.0 °F 35.8 °F 37.4 °F 87% 29.23 in 10.0 mi SSW 8.1 mph - N/A   Overcast
11:16 AM 39.2 °F 32.0 °F 37.4 °F 93% 29.23 in 10.0 mi South 11.5 mph - N/A   Overcast
11:36 AM 37.4 °F 33.8 °F 35.6 °F 93% 29.23 in 10.0 mi West 4.6 mph - N/A   Overcast
11:56 AM 44.6 °F 43.1 °F 37.4 °F 76% 29.24 in 10.0 mi NW 3.5 mph - N/A   Overcast
12:16 PM 44.6 °F - 37.4 °F 76% 29.25 in 10.0 mi Calm Calm - N/A   Overcast
12:36 PM 42.8 °F 39.3 °F 37.4 °F 81% 29.24 in 10.0 mi SSE 5.8 mph - N/A   Overcast
12:56 PM 42.8 °F 39.3 °F 37.4 °F 81% 29.23 in 10.0 mi North 5.8 mph 24.2 mph N/A   Overcast
1:16 PM 39.2 °F - 35.6 °F 87% 29.26 in 10.0 mi Calm Calm - N/A   Overcast
1:36 PM 41.0 °F 33.9 °F 37.4 °F 87% 29.24 in 10.0 mi NE 12.7 mph 20.7 mph N/A   Overcast
1:56 PM 46.4 °F 41.9 °F 35.6 °F 66% 29.22 in 10.0 mi East 9.2 mph 29.9 mph N/A   Mostly Cloudy
2:16 PM 42.8 °F 38.0 °F 35.6 °F 76% 29.23 in 10.0 mi NNW 8.1 mph - N/A   Overcast
2:36 PM 44.6 °F 39.7 °F 35.6 °F 71% 29.23 in 10.0 mi North 9.2 mph - N/A   Overcast
2:56 PM 46.4 °F 39.2 °F 33.8 °F 62% 29.22 in 10.0 mi ENE 18.4 mph 27.6 mph N/A   Overcast
3:16 PM 44.6 °F 36.9 °F 35.6 °F 71% 29.19 in 10.0 mi North 18.4 mph 46.0 mph N/A   Overcast
3:36 PM 44.6 °F 37.8 °F 35.6 °F 71% 29.19 in 10.0 mi NNE 15.0 mph 29.9 mph N/A   Overcast
3:56 PM 44.6 °F 36.6 °F 35.6 °F 71% 29.19 in 10.0 mi NNE 19.6 mph 28.8 mph N/A   Overcast
4:16 PM 46.4 °F 39.5 °F 33.8 °F 62% 29.19 in 10.0 mi East 17.3 mph 31.1 mph N/A   Overcast
4:36 PM 46.4 °F 38.3 °F 32.0 °F 57% 29.16 in 10.0 mi East 23.0 mph 36.8 mph N/A   Overcast
4:56 PM 46.4 °F 37.7 °F 32.0 °F 57% 29.15 in 10.0 mi ENE 26.5 mph 48.3 mph N/A   Overcast
5:16 PM 46.4 °F 39.2 °F 32.0 °F 57% 29.16 in 10.0 mi NNE 18.4 mph 35.7 mph N/A   Mostly Cloudy
5:36 PM 46.4 °F 40.7 °F 30.2 °F 53% 29.17 in 10.0 mi ENE 12.7 mph 33.4 mph N/A   Mostly Cloudy
5:56 PM 44.6 °F 36.1 °F 32.0 °F 61% 29.15 in 10.0 mi ENE 21.9 mph 28.8 mph N/A   Overcast
6:16 PM 46.4 °F 40.4 °F 30.2 °F 53% 29.15 in 10.0 mi NE 13.8 mph 27.6 mph N/A   Mostly Cloudy
6:36 PM 46.4 °F 40.4 °F 30.2 °F 53% 29.15 in 10.0 mi ENE 13.8 mph 26.5 mph N/A   Scattered Clouds
6:56 PM 46.4 °F 39.8 °F 30.2 °F 53% 29.13 in 10.0 mi NE 16.1 mph 24.2 mph N/A   Scattered Clouds
7:16 PM 44.6 °F 41.4 °F 30.2 °F 57% 29.13 in 10.0 mi ENE 5.8 mph - N/A   Scattered Clouds
7:36 PM 44.6 °F 39.2 °F 30.2 °F 57% 29.12 in 10.0 mi East 10.4 mph 17.3 mph N/A   Partly Cloudy
7:56 PM 42.8 °F 40.1 °F 30.2 °F 61% 29.11 in 10.0 mi WSW 4.6 mph - N/A   Clear
8:16 PM 42.8 °F - 30.2 °F 61% 29.11 in 10.0 mi Calm Calm - N/A   Clear
8:36 PM 44.6 °F - 30.2 °F 57% 29.10 in 10.0 mi Calm Calm - N/A   Partly Cloudy
8:56 PM 44.6 °F 42.2 °F 30.2 °F 57% 29.11 in 10.0 mi NE 4.6 mph - N/A   Mostly Cloudy
9:16 PM 42.8 °F 41.1 °F 30.2 °F 61% 29.11 in 10.0 mi WSW 3.5 mph - N/A   Overcast
9:36 PM 44.6 °F 42.2 °F 28.4 °F 53% 29.12 in 10.0 mi NW 4.6 mph - N/A   Overcast
9:56 PM 42.8 °F 39.3 °F 30.2 °F 61% 29.11 in 10.0 mi NNW 5.8 mph - N/A   Overcast
10:16 PM 42.8 °F - 30.2 °F 61% 29.10 in 10.0 mi Calm Calm - N/A   Mostly Cloudy
10:36 PM 39.2 °F 35.9 °F 30.2 °F 70% 29.10 in 10.0 mi SE 4.6 mph - N/A   Scattered Clouds
10:56 PM 42.8 °F 40.1 °F 30.2 °F 61% 29.09 in 10.0 mi East 4.6 mph - N/A   Mostly Cloudy
11:16 PM 44.6 °F 42.2 °F 28.4 °F 53% 29.07 in 10.0 mi East 4.6 mph - N/A   Partly Cloudy
11:36 PM 44.6 °F 40.7 °F 30.2 °F 57% 29.07 in 10.0 mi NE 6.9 mph - N/A   Clear
11:56 PM 44.6 °F - 28.4 °F 53% 29.07 in 10.0 mi Calm Calm - N/A   Clear